Regional Weather Roundup
Issued by NWS

Home | Current Version | Previous Version | Graphics & Text | Print | Product List | Glossary On
Versions: 1 2 3 4 5 6 7 8 9 10 11 12 13 14 15 16 17 18 19 20 21 22 23 24 25 26 27 28 29 30 31 32 33 34 35 36 37 38 39 40 41 42 43 44 45 46 47 48 49 50
000
ASUS45 KBOU 030910
RWRCO

WEATHER ROUNDUP FOR COLORADO
NATIONAL WEATHER SERVICE DENVER/BOULDER CO
300 AM MDT FRI JUL 03 2015

NOTE: "FAIR" INDICATES FEW OR NO CLOUDS BELOW 12000 FEET WITH NO
SIGNIFICANT WEATHER AND/OR OBSTRUCTIONS TO VISIBILITY.

COZ001>005-013-030-031-031000-
...NORTHWEST COLORADO...

CITY           SKY/WX    TMP DP  RH WIND       PRES   REMARKS
CRAIG          PTCLDY    67  44  43 CALM      30.18R
HAYDEN         MOCLDY    63  43  48 E8        30.20F
MEEKER         MOCLDY    59  46  62 E5        30.18S
MOUNT WERNER   NOT AVBL
STEAMBOAT SPGS PTCLDY    56  48  72 E14       30.23F
WALDEN         PTCLDY    50  46  87 SE5       30.35R
$$

COZ006>008-011-031000-
...WEST CENTRAL VALLEYS...

CITY           SKY/WX    TMP DP  RH WIND       PRES   REMARKS
GRAND JUNCTION PTCLDY    76  49  38 SE14      30.02R
MONTROSE       PTCLDY    72  48  42 E13       30.12S
EAGLE          PTCLDY    59  46  63 E7        30.25S
RIFLE          PTCLDY    67  42  40 S3        30.10S
DELTA          PTCLDY    73  48  41 SE9       30.08R
NUCLA          PTCLDY    68  46  45 CALM      30.19R
$$

COZ017>023-064>068-031000-
...SOUTHWEST COLORADO...

CITY           SKY/WX    TMP DP  RH WIND       PRES   REMARKS
DURANGO        MOCLDY    58  50  75 N7        30.26F
CORTEZ         CLEAR     63  54  72 N5        30.17F
PAGOSA SPRINGS MOCLDY    54  53  97 N3        30.34F
TELLURIDE      MOCLDY    60  47  60 CALM      30.42S
WOLF CREEK PAS NOT AVBL
$$

COZ009-010-012-014-032>034-037-058>063-031000-
...CENTRAL COLORADO...

CITY           SKY/WX    TMP DP  RH WIND       PRES   REMARKS
ASPEN          PTCLDY    54  42  64 SW7       30.29F
BUENA VISTA    CLEAR     49  47  92 NW3       30.38F
COPPER MTN     CLEAR     54  39  58 S14       30.62S
BERTHOUD PASS  FAIR      43  34  70 NW9       30.65F
COTTONWOOD PAS NOT AVBL
GUNNISON       CLEAR     52  43  71 N9        30.36F
KREMMLING      PTCLDY    54  43  66 CALM      30.31S
LEADVILLE      PTCLDY    42  41  96 CALM      30.48F
MONARCH PASS   CLEAR     45  39  81 CALM      30.72F
SALIDA         CLOUDY    53  49  87 SW6       30.41F
SUNLIGHT       CLOUDY    55  41  58 NE5       30.54S
WILKERSON PASS PTCLDY    45  43  93 SW8       30.59F
$$

COZ069>075-031000-
...SAN LUIS VALLEY/SANGRE DE CRISTO MOUNTAINS...

CITY           SKY/WX    TMP DP  RH WIND       PRES   REMARKS
ALAMOSA        PTCLDY    51  49  92 CALM      30.33S
LA VETA PASS   FOG       50  46  87 MISG      30.50S VSB 1/4
SAGUACHE       CLEAR     48  46  93 NW9       30.36F
$$

COZ035-036-038>040-031000-
...NORTHERN COLORADO FRONT RANGE...

CITY           SKY/WX    TMP DP  RH WIND       PRES   REMARKS
DENVER INTL AP MOCLDY    57  55  93 S5        30.17F
DMNS CITY PARK   N/A     61  58  92 SE3G10    30.15F
AURORA         PTCLDY    58  56  93 S7        30.18F
FRONT RANGE AP PTCLDY    61  57  88 MISG      30.18F
ERIE MUNI ARPT PTCLDY    60  58  94 CALM      30.15F
BOULDER MUN AP PTCLDY    61  59  94 CALM      30.16F
CENTENNIAL     PTCLDY    58  56  93 S7        30.19F
BROOMFIELD     PTCLDY    61  55  82 W6        30.18F
FORT COLLINS   CLEAR     61  55  82 N5        30.17F
LONGMONT       CLEAR     61  58  90 CALM      30.17F
$$

COZ041-046-047-076>085-087-088-031000-
...PIKES PEAK/PALMER DIVIDE AND SOUTHERN FOOTHILLS...

CITY           SKY/WX    TMP DP  RH WIND       PRES   REMARKS
COLO. SPRINGS  PTCLDY    58  52  80 NE7       30.24F
A. F. ACADEMY  PTCLDY    54  53  97 N3        30.25F
ELLICOTT       PTCLDY   N/A N/A N/A CALM      30.22F
FALCON         PTCLDY    55  51  87 W6        30.28F
FORT CARSON    PTCLDY    59  54  84 SW1       30.21F
LIMON          CLEAR     55  54  96 CALM      30.19F
MONUMENT HILL  NOT AVBL
TRINIDAD       CLOUDY    62  57  83 W8        30.22F
$$

COZ042>045-048>051-090-091-031000-
...NORTHEAST COLORADO...

CITY           SKY/WX    TMP DP  RH WIND       PRES   REMARKS
GREELEY ARPT   CLEAR     61  57  88 N3        30.16S
AKRON          LGT RAIN  61  60  97 SW13      30.18F
BURLINGTON     PTCLDY    62  59  90 S8        30.13S
WRAY           CLEAR     59  56  87 CALM      30.10S
STERLING       NOT AVBL
HOLYOKE        CLEAR     61  55  82 NW5       30.11S
FORT MORGAN    NOT AVBL
$$

COZ086-089-092>099-031000-
...SOUTHEAST COLORADO...

CITY           SKY/WX    TMP DP  RH WIND       PRES   REMARKS
PUEBLO         PTCLDY    63  55  75 W3        30.16F
LA JUNTA       CLOUDY    67  58  72 MISG      30.09F
LAMAR          CLOUDY    67  62  84 NE5       30.05F
SPRINGFIELD      N/A     63  62  97 W8        30.11F
$$


USA.gov is the U.S. government's official web portal to all federal, state and local government web resources and services.